W4SNA-3 Weather Reports


Display with metric or nautical units.
time (UTC)temp
F
wind
direction
speed
MPH
gust
MPH
rain 1hr
in
rain 24hr
in
rain mn
in
humidity
%
barometer
mb
20260901054724 70 0 0.0 0.0 0.00 0.25 0.00 85 1022.0
20260901054224 70 0 0.0 0.0 0.00 0.25 0.00 84 1022.1
20260901053725 70 0 0.0 0.0 0.00 0.25 0.00 84 1022.2
20260901052811 70 0 0.0 2.0 0.00 0.25 0.00 84 1022.2
20260901052312 70 0 0.0 3.0 0.00 0.25 0.00 84 1022.2
20260901051817 70 0 0.0 3.0 0.00 0.25 0.00 84 1022.2
20260901051311 70 0 0.0 0.0 0.00 0.25 0.00 84 1022.2
20260901050811 70 0 0.0 0.0 0.00 0.25 0.00 84 1022.2
20260901050312 70 0 0.0 0.0 0.00 0.25 0.00 84 1022.2
20260901045811 70 0 0.0 1.0 0.00 0.25 0.00 84 1022.1
20260901045311 70 0 0.0 1.0 0.00 0.25 0.00 84 1022.1
20260901044811 70 0 0.0 1.0 0.00 0.25 0.00 84 1022.1
20260901044321 70 0 0.0 2.0 0.00 0.25 0.00 84 1022.1
20260901043821 70 0 0.0 2.0 0.00 0.25 0.00 85 1022.1
20260901043321 70 0 0.0 2.0 0.00 0.25 0.00 85 1022.2
20260901042811 70 0 0.0 2.0 0.00 0.25 0.00 85 1022.2
20260901042312 70 0 0.0 2.0 0.00 0.25 0.00 85 1022.2
20260901041811 70 0 0.0 2.0 0.00 0.25 0.00 85 1022.2
20260901041312 70 0 0.0 4.0 0.00 0.25 0.00 85 1022.2
20260901040820 70 54 1.0 4.0 0.00 0.25 0.00 86 1022.2
20260901040311 70 0 0.0 2.0 0.00 0.25 0.00 86 1022.1
20260901035811 69 0 0.0 3.0 0.00 0.25 0.00 86 1022.1
20260901035311 69 0 0.0 3.0 0.00 0.25 0.00 86 1022.1
20260901034813 69 0 0.0 2.0 0.00 0.25 0.26 86 1022.0
20260901034313 69 0 0.0 3.0 0.00 0.25 0.26 86 1022.1
20260901033822 69 0 0.0 3.0 0.00 0.25 0.26 87 1022.0
20260901033311 69 0 0.0 2.0 0.00 0.25 0.26 87 1021.9
20260901032811 69 0 0.0 3.0 0.00 0.25 0.26 86 1022.1
20260901032311 70 55 1.0 3.0 0.00 0.25 0.26 86 1022.0
20260901031747 70 0 0.0 2.0 0.00 0.25 0.26 86 1021.9
20260901031247 70 0 0.0 3.0 0.00 0.25 0.26 85 1021.9
20260901030747 70 0 0.0 3.0 0.00 0.25 0.26 85 1021.9
20260901030312 69 0 0.0 2.0 0.00 0.25 0.26 85 1022.1
20260901025747 69 0 0.0 2.0 0.00 0.25 0.26 86 1022.0
20260901025254 69 0 0.0 2.0 0.00 0.25 0.26 85 1021.9
20260901024747 69 55 1.0 3.0 0.00 0.25 0.26 87 1022.0
20260901024247 69 0 0.0 3.0 0.00 0.25 0.26 87 1022.0
20260901023747 69 0 0.0 3.0 0.00 0.25 0.26 87 1022.1
20260901023247 69 67 1.0 5.0 0.00 0.25 0.26 87 1022.2
20260901022807 69 65 1.0 5.0 0.00 0.25 0.26 87 1022.1
20260901022247 69 57 1.0 3.0 0.00 0.25 0.26 88 1022.1
20260901021748 69 57 1.0 3.0 0.00 0.25 0.26 88 1022.0
20260901020848 69 58 1.0 5.0 0.00 0.25 0.26 88 1021.9
20260901020348 69 40 1.0 5.0 0.00 0.25 0.26 89 1022.0
20260901015848 69 42 1.0 4.0 0.00 0.25 0.26 90 1021.9
20260901015348 69 42 1.0 4.0 0.00 0.25 0.26 91 1021.7
20260901014630 69 43 1.0 4.0 0.00 0.25 0.26 91 1021.7
20260901013931 69 45 1.0 3.0 0.00 0.25 0.26 92 1021.8
20260901013432 69 51 1.0 4.0 0.00 0.25 0.26 92 1021.6
20260901013013 69 52 1.0 4.0 0.00 0.25 0.26 93 1021.5
20260901012436 69 48 1.0 4.0 0.00 0.25 0.26 93 1021.5
20260901011932 68 40 2.0 4.0 0.00 0.25 0.26 93 1021.5
20260901011432 69 35 1.0 4.0 0.00 0.25 0.26 94 1021.4
20260901010934 69 35 1.0 4.0 0.00 0.25 0.26 94 1021.4
20260901010431 69 30 1.0 3.0 0.00 0.25 0.26 94 1021.4
20260901005933 69 30 1.0 3.0 0.00 0.25 0.26 94 1021.3
20260901005432 69 30 1.0 3.0 0.00 0.25 0.26 94 1021.3
20260901004546 69 30 1.0 3.0 0.03 0.25 0.26 93 1021.3
20260901004038 69 30 1.0 3.0 0.09 0.25 0.26 93 1021.3
20260901003541 69 37 1.0 5.0 0.25 0.25 0.26 93 1021.2
20260901003037 70 37 2.0 6.0 0.25 0.25 0.26 93 1021.2
20260901002537 70 40 2.0 6.0 0.25 0.25 0.26 92 1021.1
20260901002037 70 17 1.0 5.0 0.25 0.25 0.26 92 1021.1
20260901001540 70 32 1.0 5.0 0.25 0.25 0.26 92 1021.1
20260901001037 70 29 1.0 3.0 0.25 0.25 0.26 92 1021.1
20260901000537 71 0 0.0 2.0 0.25 0.25 0.26 91 1021.1
20260901000044 71 0 0.0 2.0 0.25 0.25 0.26 90 1021.1
20260831235538 72 0 0.0 4.0 0.25 0.25 0.26 88 1021.1
20260831235037 73 26 1.0 4.0 0.24 0.24 0.25 86 1021.1
20260831234540 74 307 1.0 3.0 0.22 0.22 0.23 83 1021.1
20260831233601 77 61 1.0 3.0 0.00 0.00 0.00 78 1021.1
20260831233102 77 118 1.0 3.0 0.00 0.00 0.00 74 1021.1
20260831232602 77 0 0.0 0.0 0.00 0.00 0.00 71 1021.1
20260831232100 77 0 0.0 0.0 0.00 0.00 0.00 71 1021.1
20260831231601 78 0 0.0 0.0 0.00 0.00 0.00 72 1021.1
20260831231103 78 0 0.0 0.0 0.00 0.00 0.00 70 1021.2
20260831230425 78 0 0.0 0.0 0.00 0.00 0.00 70 1021.2
20260831225924 79 0 0.0 0.0 0.00 0.00 0.00 71 1021.2
20260831225425 79 0 0.0 0.0 0.00 0.00 0.00 70 1021.3
20260831224924 79 0 0.0 0.0 0.00 0.00 0.00 69 1021.2
20260831224425 79 0 0.0 0.0 0.00 0.00 0.00 69 1021.2
20260831223935 79 0 0.0 4.0 0.00 0.00 0.00 69 1021.2
20260831223425 79 103 1.0 5.0 0.00 0.00 0.00 67 1021.2
20260831222924 80 90 1.0 5.0 0.00 0.00 0.00 67 1021.1
20260831222425 80 0 0.0 0.0 0.00 0.00 0.00 71 1021.2
20260831221924 80 0 0.0 0.0 0.00 0.00 0.00 69 1021.2
20260831221426 80 0 0.0 0.0 0.00 0.00 0.00 70 1021.2
20260831220925 80 0 0.0 0.0 0.00 0.00 0.00 68 1021.2
20260831220425 80 0 0.0 0.0 0.00 0.00 0.00 68 1021.3
20260831215924 81 0 0.0 0.0 0.00 0.00 0.00 69 1021.3
20260831215424 81 0 0.0 0.0 0.00 0.00 0.00 67 1021.4
20260831214924 81 0 0.0 0.0 0.00 0.00 0.00 66 1021.4
20260831214424 81 0 0.0 0.0 0.00 0.00 0.00 66 1021.4
20260831213929 82 0 0.0 0.0 0.00 0.00 0.00 64 1021.3
20260831213424 82 0 0.0 1.0 0.00 0.00 0.00 61 1021.3
20260831212924 82 0 0.0 2.0 0.00 0.00 0.00 62 1021.3
20260831212425 82 0 0.0 2.0 0.00 0.00 0.00 62 1021.3
20260831211928 83 0 0.0 2.0 0.00 0.00 0.00 63 1021.3
20260831211425 83 0 0.0 2.0 0.00 0.00 0.00 62 1021.3
20260831210924 83 0 0.0 2.0 0.00 0.00 0.00 63 1021.2
20260831210425 83 0 0.0 3.0 0.00 0.00 0.00 61 1021.3
20260831205924 84 0 0.0 3.0 0.00 0.00 0.00 60 1021.2
20260831204941 84 77 1.0 4.0 0.00 0.00 0.00 60 1021.3
20260831204502 84 77 1.0 3.0 0.00 0.00 0.00 61 1021.3
20260831203941 84 0 0.0 5.0 0.00 0.00 0.00 60 1021.3
20260831203441 84 0 0.0 5.0 0.00 0.00 0.00 58 1021.4
20260831203018 85 86 1.0 3.0 0.00 0.00 0.00 59 1021.3
20260831202442 85 0 0.0 2.0 0.00 0.00 0.00 59 1021.5
20260831201942 86 0 0.0 2.0 0.00 0.00 0.00 58 1021.6
20260831201443 86 0 0.0 2.0 0.00 0.00 0.00 58 1021.6
20260831200617 87 0 0.0 3.0 0.00 0.00 0.00 58 1021.7
20260831200117 87 0 0.0 3.0 0.00 0.00 0.00 55 1021.8
20260831195637 87 0 0.0 3.0 0.00 0.00 0.00 56 1021.9
20260831195118 87 102 1.0 4.0 0.00 0.00 0.00 55 1021.9
20260831194618 87 89 1.0 4.0 0.00 0.00 0.00 56 1022.0
20260831194118 87 74 1.0 4.0 0.00 0.00 0.00 55 1021.9
20260831193617 87 0 0.0 1.0 0.00 0.00 0.00 58 1021.9
20260831193117 87 0 0.0 1.0 0.00 0.00 0.00 59 1021.9
20260831192617 87 0 0.0 0.0 0.00 0.00 0.00 61 1022.0
20260831192117 87 0 0.0 0.0 0.00 0.00 0.00 61 1022.0
20260831191617 87 0 0.0 0.0 0.00 0.00 0.00 55 1022.0
20260831190726 87 0 0.0 1.0 0.00 0.00 0.00 57 1022.1
20260831190224 87 0 0.0 2.0 0.00 0.00 0.00 57 1022.0
20260831185728 86 0 0.0 2.0 0.00 0.00 0.00 58 1022.0
20260831185225 86 0 0.0 2.0 0.00 0.00 0.00 57 1022.1
20260831184724 86 0 0.0 3.0 0.00 0.00 0.00 57 1022.2
20260831184226 86 0 0.0 3.0 0.00 0.00 0.00 56 1022.3
20260831183724 86 0 0.0 3.0 0.00 0.00 0.00 55 1022.3
20260831183226 86 0 0.0 3.0 0.00 0.00 0.00 59 1022.4
20260831182725 86 0 0.0 3.0 0.00 0.00 0.00 60 1022.4
20260831182228 86 0 0.0 2.0 0.00 0.00 0.00 60 1022.5
20260831181725 86 0 0.0 5.0 0.00 0.00 0.00 61 1022.6
20260831181224 86 0 0.0 5.0 0.00 0.00 0.00 60 1022.7
20260831180724 85 100 1.0 5.0 0.00 0.00 0.00 55 1022.6
20260831180224 85 80 1.0 5.0 0.00 0.00 0.00 56 1022.6
20260831175727 85 0 0.0 4.0 0.00 0.00 0.00 61 1022.7
20260831175224 85 0 0.0 6.0 0.00 0.00 0.00 60 1023.0
20260831174725 85 58 2.0 6.0 0.00 0.00 0.00 59 1023.0
20260831174224 85 0 0.0 5.0 0.00 0.00 0.00 61 1023.1
20260831173724 85 53 2.0 5.0 0.00 0.00 0.00 59 1023.0
20260831173226 85 85 1.0 7.0 0.00 0.00 0.00 60 1023.0
20260831172724 85 356 2.0 7.0 0.00 0.00 0.00 57 1022.9
20260831172224 85 87 1.0 5.0 0.00 0.00 0.00 62 1023.0
20260831171726 85 57 2.0 5.0 0.00 0.00 0.00 59 1023.0
20260831171224 85 55 1.0 5.0 0.00 0.00 0.00 61 1023.1
20260831170727 85 43 2.0 5.0 0.00 0.00 0.00 61 1023.0
20260831170224 85 43 1.0 5.0 0.00 0.00 0.00 64 1023.0
20260831165724 85 59 2.0 6.0 0.00 0.00 0.00 63 1023.1
20260831165226 85 39 3.0 6.0 0.00 0.00 0.00 61 1023.1
20260831164725 85 0 0.0 5.0 0.00 0.00 0.00 64 1023.2
20260831164224 85 0 0.0 5.0 0.00 0.00 0.00 63 1023.3
20260831163724 85 0 0.0 4.0 0.00 0.00 0.00 61 1023.3
20260831162956 84 29 1.0 5.0 0.00 0.00 0.00 64 1023.5
20260831162452 84 0 0.0 6.0 0.00 0.00 0.00 65 1023.4
20260831162018 84 43 2.0 6.0 0.00 0.00 0.00 63 1023.5
20260831161452 85 39 1.0 5.0 0.00 0.00 0.00 64 1023.5
20260831160952 85 66 1.0 6.0 0.00 0.00 0.00 63 1023.5
20260831160452 85 46 2.0 6.0 0.00 0.00 0.00 63 1023.4
20260831160004 85 56 1.0 5.0 0.00 0.00 0.00 63 1023.4
20260831155505 84 90 1.0 5.0 0.00 0.00 0.00 67 1023.5
20260831154952 84 44 1.0 5.0 0.00 0.00 0.00 66 1023.5
20260831154143 84 0 0.0 5.0 0.00 0.00 0.00 68 1023.4
20260831153643 83 42 1.0 8.0 0.00 0.00 0.00 67 1023.4
20260831153150 83 24 1.0 8.0 0.00 0.00 0.00 68 1023.3
20260831152643 83 118 1.0 6.0 0.00 0.00 0.00 69 1023.3
20260831152143 83 45 2.0 6.0 0.00 0.00 0.00 68 1023.2
20260831151643 83 29 1.0 7.0 0.00 0.00 0.00 70 1023.2
20260831151145 83 36 1.0 7.0 0.00 0.00 0.00 70 1023.4
20260831150643 83 1 2.0 4.0 0.00 0.00 0.00 70 1023.2
20260831150143 83 35 1.0 5.0 0.00 0.00 0.00 72 1023.2
20260831145643 82 79 1.0 5.0 0.00 0.00 0.00 72 1023.3
20260831145146 82 33 2.0 4.0 0.00 0.00 0.00 71 1023.2
20260831144708 82 30 1.0 4.0 0.00 0.00 0.00 73 1023.4
20260831144145 82 36 1.0 5.0 0.00 0.00 0.00 71 1023.3
20260831143657 82 31 1.0 5.0 0.00 0.00 0.00 73 1023.4
20260831143147 81 0 0.0 4.0 0.00 0.00 0.00 74 1022.4
20260831142643 81 11 1.0 4.0 0.00 0.00 0.00 74 1022.5
20260831142143 81 30 1.0 4.0 0.00 0.00 0.00 74 1022.4
20260831141655 80 23 1.0 4.0 0.00 0.00 0.00 75 1022.3
20260831141143 80 346 1.0 4.0 0.00 0.00 0.00 75 1022.3
20260831140650 79 316 1.0 4.0 0.00 0.00 0.00 75 1022.3
20260831140144 79 331 2.0 4.0 0.00 0.00 0.00 76 1022.1
20260831135702 79 327 1.0 3.0 0.00 0.00 0.00 78 1022.1
20260831134953 78 4 1.0 4.0 0.00 0.00 0.00 78 1022.0
20260831134451 78 337 1.0 4.0 0.00 0.00 0.00 78 1022.1
20260831133951 78 327 2.0 4.0 0.00 0.00 0.00 78 1022.1
20260831133456 78 332 1.0 3.0 0.00 0.00 0.00 78 1022.2
20260831132526 77 47 1.0 5.0 0.00 0.00 0.00 79 1022.4
20260831132026 77 43 1.0 5.0 0.00 0.00 0.00 82 1022.4
20260831131528 76 336 1.0 4.0 0.00 0.00 0.00 82 1022.3
20260831131035 76 331 1.0 4.0 0.00 0.00 0.00 83 1022.3
20260831130526 75 331 1.0 4.0 0.00 0.00 0.00 83 1022.4
20260831130026 75 336 1.0 4.0 0.00 0.00 0.00 84 1022.4
20260831125527 74 325 1.0 3.0 0.00 0.00 0.00 84 1022.4
20260831125035 74 321 1.0 3.0 0.00 0.00 0.00 85 1022.4
20260831124234 73 316 1.0 4.0 0.00 0.00 0.00 87 1022.2
20260831123735 72 316 1.0 4.0 0.00 0.00 0.00 88 1022.3
20260831123234 72 0 0.0 3.0 0.00 0.00 0.00 89 1022.2
20260831122734 71 0 0.0 3.0 0.00 0.00 0.00 90 1022.2
20260831122234 70 0 0.0 3.0 0.00 0.00 0.00 91 1022.1
20260831121746 70 302 1.0 3.0 0.00 0.00 0.00 92 1022.1
20260831121236 69 298 1.0 4.0 0.00 0.00 0.00 93 1022.1
20260831120742 69 298 1.0 4.0 0.00 0.00 0.00 94 1022.1
20260831120121 68 298 1.0 4.0 0.00 0.00 0.00 95 1022.1
20260831115621 68 298 2.0 4.0 0.00 0.00 0.00 95 1022.1
20260831115131 67 298 1.0 4.0 0.00 0.00 0.00 95 1022.1
20260831114631 67 296 1.0 4.0 0.00 0.00 0.00 95 1022.1
20260831114122 67 292 2.0 4.0 0.00 0.00 0.00 95 1022.1
20260831113233 67 289 2.0 3.0 0.00 0.00 0.00 96 1022.1
20260831112735 67 286 2.0 3.0 0.00 0.00 0.00 96 1022.1
20260831112233 67 286 1.0 4.0 0.00 0.00 0.00 96 1021.9
20260831111736 67 284 1.0 4.0 0.00 0.00 0.00 96 1021.9
20260831111234 67 283 1.0 3.0 0.00 0.00 0.00 96 1021.9
20260831110733 67 282 1.0 3.0 0.00 0.00 0.00 96 1021.9
20260831110236 67 277 1.0 3.0 0.00 0.00 0.00 96 1021.9
20260831105733 67 271 1.0 3.0 0.00 0.00 0.00 96 1021.8
20260831105234 67 271 1.0 3.0 0.00 0.00 0.00 96 1021.8
20260831104738 67 271 1.0 3.0 0.00 0.00 0.00 96 1021.7
20260831104235 67 270 1.0 3.0 0.00 0.00 0.00 96 1021.6
20260831103734 67 270 1.0 3.0 0.00 0.00 0.00 96 1021.6
20260831103252 67 270 1.0 3.0 0.00 0.00 0.00 96 1021.5
20260831102735 67 270 1.0 3.0 0.00 0.00 0.00 96 1021.5
20260831102110 67 0 0.0 2.0 0.00 0.00 0.00 95 1021.5
20260831101610 67 0 0.0 2.0 0.00 0.00 0.00 95 1021.5
20260831100853 67 0 0.0 2.0 0.00 0.00 0.00 96 1021.6
20260831100355 67 0 0.0 3.0 0.00 0.00 0.00 96 1021.6
20260831095904 67 270 1.0 3.0 0.00 0.00 0.00 96 1021.5
20260831095352 67 270 1.0 3.0 0.00 0.00 0.00 96 1021.4
20260831094900 67 270 1.0 3.0 0.00 0.00 0.00 96 1021.4
20260831094352 67 270 1.0 3.0 0.00 0.00 0.00 96 1021.4
20260831093852 67 269 1.0 3.0 0.00 0.00 0.00 96 1021.4
20260831093353 67 268 1.0 3.0 0.00 0.00 0.00 96 1021.4
20260831092002 67 267 1.0 3.0 0.00 0.00 0.00 97 1021.5
20260831091415 67 267 1.0 3.0 0.00 0.00 0.00 97 1021.5
20260831090907 66 267 1.0 3.0 0.00 0.00 0.00 97 1021.5
20260831090410 66 267 1.0 3.0 0.00 0.00 0.00 97 1021.5
20260831085506 66 267 1.0 3.0 0.00 0.00 0.00 97 1021.6
20260831085006 66 267 1.0 3.0 0.00 0.00 0.00 97 1021.5
20260831084545 66 267 1.0 3.0 0.00 0.00 0.00 97 1021.5
20260831084013 66 266 1.0 3.0 0.00 0.00 0.00 97 1021.5
20260831083513 66 265 1.0 3.0 0.00 0.00 0.00 97 1021.4
20260831083006 66 265 1.0 3.0 0.00 0.00 0.00 97 1021.4
20260831082506 66 265 1.0 3.0 0.00 0.00 0.00 97 1021.4
20260831082006 66 265 1.0 3.0 0.00 0.00 0.00 97 1021.5
20260831081507 66 264 1.0 3.0 0.00 0.00 0.00 97 1021.5
20260831081013 66 264 1.0 3.0 0.00 0.00 0.00 97 1021.5
20260831080506 66 262 1.0 3.0 0.00 0.00 0.00 97 1021.6
20260831080037 66 261 1.0 3.0 0.00 0.00 0.00 97 1021.5
20260831075320 66 261 1.0 3.0 0.00 0.00 0.00 97 1021.6
20260831074820 66 261 1.0 3.0 0.00 0.00 0.00 97 1021.6
20260831074322 66 261 1.0 3.0 0.00 0.00 0.00 97 1021.6
20260831073832 66 261 2.0 3.0 0.00 0.00 0.00 97 1021.6
20260831073320 66 260 2.0 3.0 0.00 0.00 0.00 97 1021.6
20260831072035 66 260 1.0 3.0 0.00 0.00 0.00 97 1021.6
20260831071524 66 259 1.0 3.0 0.00 0.00 0.00 97 1021.5
20260831070902 67 259 1.0 3.0 0.00 0.00 0.00 97 1021.5
20260831070404 67 259 1.0 3.0 0.00 0.00 0.00 97 1021.5
20260831065903 67 259 1.0 3.0 0.00 0.00 0.00 97 1021.7
20260831065402 67 259 1.0 3.0 0.00 0.00 0.00 96 1021.7
20260831064910 67 259 2.0 3.0 0.00 0.00 0.00 96 1021.7
20260831064410 67 259 2.0 3.0 0.00 0.00 0.00 96 1021.9
20260831063916 67 259 1.0 3.0 0.00 0.00 0.00 96 1021.9
20260831063410 67 259 1.0 3.0 0.00 0.00 0.00 96 1021.8
20260831062920 67 259 1.0 3.0 0.00 0.00 0.00 96 1021.9
20260831062414 67 259 1.0 3.0 0.00 0.00 0.00 96 1021.8
20260831061902 67 259 2.0 3.0 0.00 0.00 0.00 96 1021.8
20260831061326 67 259 1.0 3.0 0.00 0.00 0.00 96 1021.9
20260831060826 67 259 1.0 3.0 0.00 0.00 0.00 96 1021.9
20260831060326 67 0 0.0 3.0 0.00 0.00 0.00 96 1021.9
20260831055826 67 259 1.0 3.0 0.00 0.00 0.00 96 1022.0
20260831055326 67 0 0.0 2.0 0.00 0.00 0.00 96 1022.1